Location: Boiro
(42.6475°N, 8.8834°W)
Time: 02:19:17
(UTC+02:00)

LINGQIAO VIDEO B - Pass Details

Date: 02 July 2022
Orbit: 636 x 662 km, 97.7° (Epoch: 14 August)

Event Time Altitude Azimuth Distance (km) Brightness Sun altitude
Rises 23:29:42 0° 193° (SSW) 2,962 ? -11.1°
Reaches altitude 10° 23:32:09 10° 205° (SSW) 2,061 ? -11.4°
Maximum altitude 23:36:02 28° 265° (W) 1,228 ? -11.9°
Drops below altitude 10° 23:39:58 10° 325° (NW) 2,086 ? -12.4°
Sets 23:42:29 0° 337° (NNW) 3,006 ? -12.7°
